Torna al catalogo

IRIDIUM 114

AttivoComunicazioniPO
NORAD 41923·PAYLOAD·🇺🇸 United States

Lanciato Jan 14, 2017 da Vandenberg Space Force Base

Loading…

Prossimi Passaggi (prossime 24 ore)

TLE

AggiornatoSource: CelesTrak SupGP

Epoca: Sep 14, 2026, 22:02 UTC

1 41923C 17003G   26257.91840278  .00002783  00000+0  99522-3 0  2577
2 41923  86.3949  50.9183 0002238  92.7530 164.6437 14.34214393    13

Traccia IRIDIUM 114 in tempo reale con AllMySat

Download on the App Store